This is the latest recevied weather packets stored in our database for station/object NK7E-2. If no packets are shown the sender has not sent any weather packets the latest 10 day(s).
| Time | Temp. | Humidity | Pressure | Rain* | Wind** | Luminosity | Snow |
|---|---|---|---|---|---|---|---|
| 1788246617 | 20° C | 84% | 1026.1 hPa | 0 mm | - | - | - |
| 1788246017 | 20° C | 80% | 1026.1 hPa | 0 mm | - | - | - |
| 1788245416 | 19.44° C | 84% | 1026.2 hPa | 0 mm | - | - | - |
| 1788244816 | 20° C | 85% | 1026.2 hPa | 0 mm | - | - | - |
| 1788244224 | 20° C | 87% | 1026.2 hPa | 0 mm | - | - | - |
| 1788243616 | 20° C | 86% | 1026.7 hPa | 0 mm | - | - | - |
| 1788243016 | 20° C | 86% | 1026.6 hPa | 0 mm | - | - | - |
| 1788242416 | 20° C | 86% | 1026.6 hPa | 0 mm | - | - | - |
| 1788241816 | 20° C | 87% | 1026.8 hPa | 0 mm | - | - | - |
| 1788241216 | 20.56° C | 89% | 1026.9 hPa | 0 mm | - | - | - |
| 1788240616 | 20.56° C | 89% | 1027 hPa | 0 mm | - | - | - |
| 1788240016 | 20.56° C | 87% | 1027.1 hPa | 0 mm | - | - | - |
| 1788239416 | 20.56° C | 90% | 1026.9 hPa | 0 mm | - | - | - |
| 1788238816 | 21.11° C | 89% | 1027 hPa | 0 mm | - | - | - |
| 1788238216 | 21.11° C | 88% | 1027.3 hPa | 0 mm | - | - | - |
| 1788237616 | 21.11° C | 87% | 1026.9 hPa | 0 mm | - | - | - |
| 1788237015 | 21.11° C | 87% | 1026.9 hPa | 0 mm | - | - | - |
| 1788236416 | 21.11° C | 87% | 1026.8 hPa | 0 mm | - | - | - |
| 1788235815 | 21.67° C | 86% | 1026.9 hPa | 0 mm | - | - | - |
| 1788235216 | 21.67° C | 85% | 1026.8 hPa | 0 mm | - | - | - |
| 1788234616 | 21.67° C | 85% | 1026.7 hPa | 0 mm | - | - | - |
| 1788234015 | 21.67° C | 84% | 1026.9 hPa | 0 mm | - | - | - |
| 1788233415 | 21.67° C | 83% | 1026.9 hPa | 0 mm | - | - | - |
| 1788232815 | 21.67° C | 81% | 1026.7 hPa | 0 mm | - | - | - |
| 1788232215 | 22.22° C | 81% | 1026.6 hPa | 0 mm | - | - | - |
* Rain latest hour (hover to see other rain measurements)
** Current wind speed in m/s (hover to see current wind gust speed)